Location: Ferma
(41.9500°N, 44.5167°E)
Time: 13:15:43
(UTC+00:00)

EXPRESS MD2 - Pass Details

Date: 24 October 2021
Orbit: 262 x 3911 km, 49.9° (Epoch: 07 December)

Event Time Altitude Azimuth Distance (km) Brightness Sun altitude
Rises 15:24:31 0° 217° (SW) 1,937 6.7 -15.1°
Reaches altitude 10° 15:26:30 10° 204° (SSW) 1,054 5.1 -15.4°
Enters shadow 15:27:45 23° 173° (S) 620 3.5 -15.7°
